Dewpoint
36 35 33 33 32 30 29 29 29 29 27 25 22 21 20 20 20 20 19 18 18 17 15 15 15 14 14 14 12 11 11 11 10 9 9 11 11 12 12 12 14 15 15 14 14 14 14 14 15 15 15 14 14 15 16 17 17 18 18 17 16 15 10 7 5 3 5 11 13 12 15 13 9 15 14 14 15 16 17 16 16 15 14 14 15
36 35 32 32 31 29 28 28 28 27 26 23 22 21 19 17 16 16 16 17 17 17 15 15 13 13 13 13 10 10 11 11 9 8 9 10 11 11 11 12 13 14 14 13 12 12 13 14 15 15 15 14 14 14 13 14 13 13 15 13 13 15 14 10 9 6 4 5 5 9 10 14 8 13 10 13 14 16 15 15 13 14 14 14 14
34 33 32 31 29 28 27 25 25 23 23 20 19 16 15 13 15 14 15 16 16 15 14 13 12 11 11 10 11 10 11 9 8 7 8 9 10 10 10 11 13 13 12 12 11 11 11 13 14 15 14 13 13 12 13 12 12 11 12 13 12 13 15 13 9 7 7 6 5 4 4 8 8 10 14 13 13 13 13 14 13 13 12 14 14
33 32 31 30 29 26 24 23 21 20 19 17 16 14 12 11 14 13 14 15 15 14 13 12 10 10 9 9 9 9 9 9 8 7 8 9 9 9 9 10 11 11 11 11 11 10 10 11 13 15 14 13 13 12 12 11 11 11 10 13 11 11 12 14 11 6 6 5 5 5 6 8 8 11 12 13 13 12 12 12 13 12 13 13 14
33 31 30 29 27 25 23 21 19 18 18 16 15 11 10 10 12 11 13 14 14 13 13 10 9 9 8 8 8 9 9 8 7 7 8 8 8 8 8 8 9 10 10 11 14 10 9 9 11 14 14 13 13 12 12 11 11 11 10 10 11 10 9 11 11 10 8 7 6 7 8 8 10 12 13 12 12 11 12 11 10 11 12 14 14
32 31 29 28 26 24 22 20 19 18 17 15 14 11 10 11 12 12 13 15 13 12 11 9 9 7 7 7 7 8 8 8 7 7 8 9 9 9 8 7 8 9 10 11 11 9 9 8 11 13 14 13 12 13 12 11 10 11 10 10 10 10 9 9 10 9 9 8 7 7 8 9 10 11 12 13 11 11 11 10 9 10 10 11 12
31 30 29 28 26 24 22 19 18 17 16 15 12 10 9 11 12 12 14 13 13 12 11 9 9 7 7 7 7 8 8 7 7 7 8 9 9 9 9 8 7 8 8 10 11 9 9 8 10 12 13 12 11 12 12 11 11 11 11 10 10 10 10 9 9 9 9 8 8 8 8 10 11 11 12 13 13 12 11 9 8 10 10 10 11
31 30 29 28 27 25 22 19 18 17 15 14 12 10 11 13 13 13 15 13 12 12 11 9 9 7 7 7 7 8 7 7 6 7 7 8 9 10 10 9 6 6 6 8 10 10 9 9 9 11 12 12 11 10 11 11 11 11 11 10 10 10 10 11 10 10 9 9 9 9 9 10 11 12 13 13 11 10 9 9 8 9 10 11 12
30 30 29 28 27 25 22 19 18 17 16 14 13 11 13 13 14 14 14 13 13 12 11 10 9 8 8 8 8 8 7 6 6 7 7 7 8 9 11 10 6 5 5 6 8 9 9 8 8 9 12 17 18 16 15 15 13 15 13 11 11 11 13 13 13 11 12 12 11 10 10 10 11 12 11 10 10 8 8 9 9 10 11 11 12
30 29 29 28 27 25 22 20 18 17 16 14 13 12 13 15 15 15 15 14 13 12 12 11 10 9 9 9 9 8 7 7 16 20 17 10 9 9 10 11 8 5 6 5 5 8 8 8 10 18 19 20 21 21 21 21 20 14 12 12 14 14 13 12 12 13 13 13 12 10 11 11 10 10 10 10 10 10 10 10 9 10 11 12 12
30 29 29 28 26 24 21 20 18 17 16 15 19 16 16 18 16 18 17 14 15 14 12 12 11 10 10 10 10 9 8 10 22 23 22 21 11 10 11 13 9 5 6 5 5 6 7 8 8 16 21 22 21 23 23 24 24 23 20 19 17 14 13 12 12 12 11 11 12 12 12 11 10 10 9 9 10 10 10 10 10 11 12 12 12
30 29 29 27 26 23 21 20 20 19 18 19 20 20 20 21 20 20 19 18 16 14 13 12 12 10 10 10 10 10 9 22 24 25 25 23 20 12 13 16 15 6 5 5 5 5 6 7 9 10 13 16 16 18 22 25 25 25 25 24 22 21 20 14 13 11 12 10 11 12 11 11 10 10 10 10 10 11 11 11 11 11 12 13 12
30 29 28 27 25 23 22 21 20 21 22 21 22 22 22 22 22 20 20 19 18 16 13 14 12 12 11 11 11 11 10 24 26 26 26 26 23 17 16 13 16 15 7 6 5 5 6 8 8 9 10 19 21 16 15 18 24 25 26 26 26 25 24 23 20 14 13 13 11 12 11 10 10 10 11 10 11 11 11 11 11 12 12 12 12
29 29 28 27 25 23 22 24 23 23 22 23 21 22 22 22 22 22 20 20 18 17 17 16 15 13 12 12 12 12 11 24 27 28 28 28 26 21 17 17 18 15 11 7 5 5 6 8 9 10 10 13 15 16 16 16 15 17 20 23 24 25 27 27 26 24 19 13 14 15 14 12 11 12 12 14 13 13 14 13 12 14 14 14 13
29 28 27 26 25 24 23 23 23 23 24 23 23 22 22 23 23 22 21 19 19 18 17 18 18 18 18 16 13 13 11 25 27 28 28 29 29 27 20 19 19 16 12 9 7 6 6 7 9 9 10 12 12 15 16 16 17 18 18 18 19 21 23 23 24 24 24 23 19 18 17 17 15 15 14 14 14 14 14 15 15 15 15 14 11
28 27 27 25 24 23 24 25 24 24 23 24 23 23 23 23 23 23 21 20 20 20 20 20 20 20 19 19 17 14 13 25 27 28 29 30 29 29 26 23 19 18 14 12 9 8 7 8 9 10 11 12 17 22 20 16 18 17 16 16 16 15 16 20 24 26 24 23 23 23 21 19 21 19 17 17 17 18 17 14 13 12 12 12 12
27 26 26 24 23 23 24 24 24 24 24 24 24 24 24 23 22 22 22 21 20 19 20 20 21 21 21 20 18 16 18 24 27 29 30 30 31 29 28 26 23 20 16 15 11 9 9 9 9 9 11 11 16 22 24 24 18 16 15 14 14 13 13 13 19 23 25 26 27 27 27 27 26 26 25 25 22 19 15 14 13 11 11 11 12
26 25 25 24 23 23 24 25 25 24 24 24 24 24 23 23 22 22 21 21 20 20 20 20 21 21 21 20 20 19 20 24 27 29 29 30 31 29 28 27 26 24 22 18 15 13 12 20 18 11 10 11 17 21 23 24 22 18 16 14 13 13 14 13 11 12 20 22 24 25 26 26 26 26 25 25 25 24 18 14 15 11 12 11 10
25 25 24 23 22 23 24 25 24 24 23 24 24 24 23 23 23 22 22 22 21 21 21 20 21 21 21 21 24 21 22 24 26 28 28 29 30 29 28 27 26 25 23 22 20 17 14 18 20 18 14 14 19 21 22 22 22 21 19 16 15 15 16 16 14 13 13 13 13 13 16 20 21 20 20 24 24 23 20 18 16 12 13 12 10
24 24 22 22 22 24 25 25 25 24 25 25 25 24 24 23 22 22 22 21 21 20 20 20 21 21 22 22 22 23 22 22 25 27 28 29 30 29 28 26 24 24 24 23 22 22 19 16 17 21 23 23 22 23 23 24 22 21 20 19 17 16 18 16 16 15 14 14 14 13 13 13 15 17 18 18 20 22 20 17 14 14 14 13 11
24 22 22 22 23 24 25 25 25 25 26 25 25 24 23 23 22 22 22 22 22 21 21 21 21 22 22 22 22 23 23 22 23 26 27 28 29 29 27 26 25 24 23 23 22 21 21 20 18 20 23 24 25 26 26 26 25 22 21 19 18 19 20 17 16 20 16 14 14 14 14 14 15 16 16 16 18 19 17 18 14 14 14 12 11
23 22 22 22 23 23 24 24 24 24 24 24 24 23 24 24 23 22 22 22 22 22 22 22 22 22 22 21 21 21 22 23 21 24 26 27 28 28 27 26 25 24 23 22 22 21 21 20 19 20 24 25 26 27 27 28 28 26 25 27 27 27 24 23 22 20 19 18 18 17 16 15 14 15 14 15 15 15 15 15 16 13 12 12 12
23 22 22 22 22 23 24 24 24 24 24 25 25 24 24 24 24 24 23 23 23 23 23 22 22 21 20 20 19 19 19 19 23 20 23 25 25 26 27 27 27 26 24 22 22 21 21 19 19 22 24 25 26 26 27 27 27 25 28 28 28 27 26 25 25 24 22 20 19 18 18 17 16 14 14 13 14 15 14 12 12 12 11 11 9
23 22 22 22 22 23 24 24 25 25 25 25 25 24 24 24 24 24 24 23 23 22 21 21 20 19 19 18 17 16 15 14 19 21 19 22 23 24 25 26 26 25 24 24 23 23 22 21 21 24 25 25 26 27 27 27 25 27 27 27 27 26 25 24 24 23 22 21 19 18 18 18 16 15 14 15 14 15 12 10 10 10 10 10 8
23 22 22 22 23 23 24 25 26 26 26 26 25 24 24 24 23 23 23 22 22 21 20 19 19 18 17 17 16 15 14 13 12 17 20 20 21 22 23 24 24 24 23 24 23 22 24 25 26 26 26 26 27 27 27 27 27 27 27 27 25 25 24 23 23 22 21 20 19 18 18 17 16 16 16 15 13 10 9 8 8 8 8 8 7
22 22 22 22 22 23 23 24 24 26 26 26 26 25 24 23 22 21 21 21 20 20 18 17 17 16 16 15 14 14 12 11 11 10 16 19 20 22 22 23 23 23 24 24 24 25 25 25 23 22 21 20 19 19 19 20 23 23 24 25 24 23 23 22 21 20 19 19 18 17 17 17 15 14 11 10 9 8 7 6 6 4 5 4 3
22 21 21 21 21 22 22 23 23 23 23 23 23 23 22 22 21 20 20 19 18 18 17 16 15 15 14 14 12 10 9 8 9 8 7 8 11 14 15 15 18 19 16 14 17 14 15 16 16 18 18 18 17 18 17 18 18 18 20 22 22 23 22 22 21 20 19 19 18 17 17 15 11 9 9 8 8 7 8 6 4 4 3 3 1
21 21 20 21 21 22 22 19 21 22 21 21 21 21 21 21 19 18 18 17 17 16 16 15 14 14 14 13 11 9 10 9 7 8 8 7 7 7 7 7 7 7 8 9 9 10 9 14 14 12 12 12 13 13 15 16 18 18 18 19 19 20 21 22 22 20 19 18 17 17 12 8 9 10 8 7 7 6 6 5 4 2 1 1 -0
19 18 18 19 19 18 19 19 19 18 16 14 14 16 19 18 18 13 9 15 16 16 15 14 13 12 13 11 11 10 9 9 10 16 10 15 8 5 4 5 6 5 10 18 14 11 11 11 11 13 13 14 13 13 13 14 15 16 16 17 17 17 18 17 17 17 17 16 15 15 14 12 10 8 6 5 5 4 6 4 3 1 0 -0 -2
17 16 16 16 15 16 16 16 15 15 15 15 16 18 19 20 16 14 12 20 21 21 21 12 11 11 11 10 11 11 10 9 21 20 19 19 20 19 18 18 18 14 18 23 21 17 16 15 16 16 16 15 14 14 14 14 14 14 14 16 15 15 15 15 15 14 14 14 14 13 12 11 10 8 5 5 5 4 3 5 1 0 -1 -2 -2
14 14 14 14 14 14 13 13 12 12 13 14 16 16 18 20 22 23 23 22 22 22 21 21 21 19 13 8 8 18 21 20 20 21 21 22 22 23 23 24 24 24 24 22 21 20 18 17 16 16 16 15 14 14 14 13 13 13 12 12 12 13 13 13 13 13 12 12 11 11 11 10 9 9 7 6 5 4 1 2 2 -1 -2 -3 -3
15 13 13 12 12 11 12 11 10 11 11 12 14 16 17 17 19 22 23 23 23 23 23 23 21 21 22 17 13 11 19 21 21 21 21 22 22 21 22 23 23 23 23 22 20 18 16 15 14 13 12 11 10 10 9 9 8 7 7 7 7 8 8 8 10 9 9 10 10 9 9 8 8 7 6 6 5 3 1 -0 -0 -1 -2 -2 -3
13 12 11 10 10 10 10 10 10 11 10 11 11 13 15 16 15 16 19 23 23 23 22 23 23 23 23 22 21 23 23 23 23 23 22 22 21 21 20 21 21 20 20 14 12 11 10 10 9 8 8 7 7 7 6 6 5 5 5 5 5 4 5 6 6 6 7 7 8 8 8 8 7 6 5 4 3 2 1 -0 -0 -1 -2 -4 -4
12 12 11 10 10 10 10 10 10 10 11 11 11 12 11 12 15 16 15 14 15 18 22 24 24 23 24 23 23 23 22 22 21 21 20 19 18 18 17 15 18 18 16 9 8 8 7 7 6 5 4 4 4 3 2 1 1 1 1 1 1 1 2 2 1 2 2 3 4 4 5 5 5 4 4 3 2 2 1 -0 -1 -3 -4 -4 -5
10 8 7 8 11 10 9 8 8 7 7 8 8 8 7 8 12 13 13 12 11 9 6 8 16 20 18 19 20 20 20 19 19 19 17 16 15 14 16 -0 -0 -1 -1 1 2 2 2 1 -0 -1 -2 -3 -3 -4 -4 -4 -3 -3 -3 -3 -2 -2 -2 -2 -1 -1 0 1 2 2 2 2 2 3 3 2 1 -1 -1 -2 -2 -3 -4 -4 -5
8 8 6 5 5 6 5 5 5 6 6 4 3 4 3 5 7 5 4 4 5 2 -1 -0 2 13 16 17 17 17 18 18 17 16 14 12 10 15 -5 -7 -5 -5 -5 -5 -5 -4 -3 -4 -6 -6 -6 -7 -8 -7 -8 -6 -6 -6 -5 -4 -4 -4 -4 -4 -2 -1 -1 -2 -1 -1 0 -0 -0 0 1 1 0 -0 -1 -3 -4 -4 -5 -6 -7
7 6 5 3 2 2 1 0 0 2 5 1 1 1 1 -0 -2 -1 -1 -1 -2 -5 -3 -6 -5 -2 3 0 6 14 16 15 14 13 12 11 10 -3 -8 -9 -9 -8 -7 -9 -8 -8 -10 -10 -9 -10 -10 -9 -9 -11 -9 -10 -9 -8 -5 -6 -6 -6 -6 -4 -3 -3 -4 -4 -4 -4 -3 -3 -2 -2 -1 -3 -3 -4 -4 -5 -5 -5 -5 -5 -5
3 4 2 -0 0 -0 1 2 2 3 0 0 -0 -1 -2 -3 -4 -3 -3 -5 -5 -5 -6 -7 -1 -8 -5 -6 3 1 1 10 7 6 4 3 -9 -10 -9 -9 -11 -12 -12 -13 -11 -14 -12 -14 -16 -13 -12 -12 -12 -12 -12 -12 -11 -10 -9 -9 -8 -8 -4 -5 -6 -8 -7 -6 -6 -6 -5 -5 -4 -4 -4 -5 -5 -5 -5 -6 -6 -7 -6 -5 -5
0 3 3 4 5 2 1 0 -0 -1 -2 -3 -3 -3 -4 -4 -5 -5 -6 -7 -9 -10 -10 -13 -11 -10 -10 -10 -10 -3 -3 -12 -13 -14 -14 -15 -16 -18 -17 -14 -14 -14 -15 -15 -13 -11 -14 -15 -14 -13 -13 -14 -12 -13 -13 -12 -12 -11 -11 -10 -10 -10 -10 -11 -10 -10 -9 -8 -7 -7 -7 -7 -7 -7 -6 -5 -6 -6 -6 -6 -7 -7 -8 -8 -8
2 3 5 5 3 1 -2 -2 -3 -3 -4 -4 -5 -5 -5 -5 -6 -8 -9 -8 -10 -11 -13 -11 -11 -13 -13 -11 -5 -7 -9 -12 -14 -16 -16 -16 -15 -18 -19 -17 -16 -16 -16 -18 -18 -18 -18 -19 -19 -19 -18 -18 -17 -16 -15 -13 -13 -12 -12 -11 -11 -11 -11 -12 -11 -11 -10 -10 -9 -9 -9 -9 -8 -8 -8 -8 -7 -8 -7 -7 -8 -8 -8 -8 -8
2 1 1 3 0 -2 -4 -5 -6 -6 -7 -7 -7 -7 -7 -9 -10 -10 -10 -10 -11 -12 -13 -14 -14 -15 -14 -6 7 3 -10 -12 -14 -15 -15 -16 -16 -18 -18 -19 -17 -19 -17 -16 -17 -19 -19 -20 -21 -20 -20 -20 -19 -17 -16 -15 -14 -13 -14 -13 -13 -12 -13 -14 -14 -14 -13 -12 -11 -11 -11 -11 -10 -9 -10 -10 -5 -5 -7 -8 -8 -8 -8 -8 -8
-1 -2 -2 -3 -4 -5 -6 -7 -8 -8 -8 -9 -9 -9 -9 -10 -12 -11 -11 -12 -12 -13 -14 -17 -17 -20 -8 9 10 4 -13 -19 -18 -17 -16 -17 -18 -21 -18 -21 -22 -22 -21 -20 -21 -19 -19 -20 -19 -19 -19 -18 -18 -17 -16 -17 -17 -16 -16 -15 -15 -15 -14 -14 -15 -15 -14 -13 -13 -13 -12 -11 -9 -8 -8 -3 -7 -9 -9 -9 -9 -9 -9 -9 -9
-5 -6 -7 -7 -6 -8 -8 -10 -10 -10 -10 -10 -11 -10 -11 -12 -12 -12 -12 -14 -14 -15 -15 -16 -17 -18 -13 2 -1 -4 -21 -21 -15 -18 -20 -20 -22 -20 -20 -19 -21 -23 -23 -23 -23 -22 -21 -20 -20 -20 -20 -19 -19 -18 -16 -17 -16 -16 -16 -17 -16 -16 -16 -15 -15 -14 -14 -14 -14 -13 -13 -12 -11 -11 -11 -10 -10 -10 -10 -11 -10 -10 -10 -10 -10
-7 -8 -9 -9 -10 -10 -11 -11 -10 -12 -12 -11 -11 -13 -14 -14 -15 -16 -15 -16 -17 -17 -18 -19 -19 -18 -20 -19 -17 -20 -24 -23 -25 -25 -24 -21 -21 -20 -21 -23 -26 -26 -26 -25 -25 -25 -24 -23 -21 -21 -22 -21 -21 -22 -19 -18 -18 -17 -17 -17 -16 -15 -15 -15 -15 -15 -14 -14 -14 -13 -13 -13 -12 -12 -11 -10 -12 -12 -12 -12 -12 -11 -11 -11 -12
-9 -9 -9 -10 -12 -11 -14 -14 -12 -12 -12 -13 -15 -16 -16 -18 -17 -19 -18 -18 -17 -20 -21 -21 -20 -19 -18 -21 -24 -24 -24 -25 -21 -20 -21 -21 -21 -21 -23 -25 -26 -25 -25 -25 -25 -27 -26 -24 -23 -23 -22 -21 -21 -21 -20 -19 -19 -18 -17 -17 -17 -16 -16 -16 -17 -16 -13 -14 -13 -13 -13 -12 -13 -14 -14 -13 -13 -13 -12 -13 -12 -10 -11 -11 -12
-10 -10 -10 -11 -12 -14 -14 -15 -15 -16 -15 -15 -15 -19 -22 -22 -20 -19 -19 -20 -19 -21 -22 -21 -22 -22 -22 -25 -25 -21 -24 -30 -26 -24 -22 -22 -22 -22 -23 -24 -25 -26 -25 -23 -24 -26 -24 -23 -23 -22 -21 -20 -20 -21 -21 -21 -20 -19 -19 -19 -17 -16 -15 -16 -16 -16 -16 -16 -14 -14 -14 -13 -13 -13 -11 -12 -13 -13 -14 -13 -13 -12 -12 -13 -13
-13 -12 -12 -13 -13 -14 -16 -17 -18 -19 -19 -20 -20 -20 -23 -25 -24 -20 -18 -20 -20 -18 -23 -24 -25 -23 -23 -24 -23 -23 -23 -22 -22 -23 -22 -23 -25 -23 -24 -26 -25 -25 -24 -24 -26 -24 -24 -22 -22 -21 -21 -21 -22 -21 -21 -20 -21 -20 -19 -18 -18 -18 -17 -17 -17 -16 -16 -16 -15 -14 -14 -14 -13 -13 -12 -11 -11 -11 -12 -12 -13 -13 -13 -14 -14
-14 -14 -15 -15 -15 -15 -18 -17 -15 -16 -19 -19 -20 -21 -21 -21 -21 -21 -23 -20 -20 -19 -21 -25 -26 -26 -24 -23 -23 -23 -23 -22 -23 -21 -22 -22 -23 -23 -25 -26 -24 -23 -24 -24 -25 -23 -23 -23 -23 -22 -22 -21 -20 -19 -20 -20 -21 -20 -20 -20 -19 -19 -18 -15 -17 -17 -17 -17 -16 -16 -15 -15 -15 -14 -14 -14 -15 -14 -13 -13 -13 -14 -14 -15 -15
-16 -15 -15 -17 -18 -16 -16 -17 -18 -19 -20 -21 -20 -21 -20 -22 -22 -23 -22 -22 -23 -22 -22 -22 -23 -26 -26 -23 -24 -23 -24 -22 -22 -24 -22 -22 -23 -25 -23 -26 -24 -23 -25 -22 -22 -23 -23 -23 -22 -22 -22 -21 -21 -21 -21 -21 -20 -20 -20 -19 -18 -15 -14 -13 -13 -15 -14 -14 -15 -16 -17 -16 -17 -17 -16 -15 -14 -15 -15 -16 -17 -16 -16 -16 -16
-18 -18 -17 -18 -19 -21 -22 -22 -23 -23 -23 -23 -22 -23 -21 -22 -22 -22 -24 -24 -24 -24 -25 -25 -23 -22 -24 -22 -22 -21 -23 -22 -21 -20 -21 -21 -22 -23 -23 -23 -24 -24 -23 -23 -22 -22 -23 -24 -23 -23 -22 -22 -22 -22 -21 -21 -20 -19 -20 -19 -13 -11 -11 -11 -11 -10 -10 -13 -14 -15 -16 -16 -17 -17 -17 -17 -18 -17 -17 -17 -18 -17 -17 -18 -18
-18 -19 -20 -21 -21 -22 -23 -24 -25 -26 -25 -25 -25 -23 -22 -22 -21 -23 -23 -22 -21 -21 -22 -23 -23 -24 -24 -22 -22 -22 -20 -22 -20 -21 -21 -21 -21 -24 -22 -23 -22 -23 -24 -23 -22 -22 -22 -22 -22 -22 -22 -21 -20 -20 -21 -21 -21 -20 -16 -13 -12 -11 -11 -11 -12 -10 -10 -10 -15 -14 -15 -17 -18 -18 -18 -19 -20 -21 -19 -18 -18 -18 -19 -18 -18